Tracking 30160 objects as of 13-Feb-2025
HD Live streaming from Space Station
objects crossing your sky now

PEGASUS DEB

Track PEGASUS DEB now!
10-day predictions


NORAD ID: 24091
Int'l Code: 1994-029EN
Perigee: 522.1 km
Apogee: 617.3 km
Inclination: 82.0 °
Period: 95.9 minutes
Semi major axis: 6940 km
RCS: 0.0602 m2 (small)
Launch date: May 19, 1994
Source: United States (US)
Launch site: AIR FORCE WESTERN TEST RANGE (AFWTR)

Note: This is SATELLITE DEBRIS
Your satellite tracking list
Your tracking list is empty




NASA's NSSDC Master Catalog

Two Line Element Set (TLE):
1 24091U 94029EN  25043.57215084  .00006112  00000-0  44860-3 0  9991
2 24091  81.9972 163.1485 0068575  34.8276 336.5977 15.01396940556681
Source of the keplerian elements: AFSPC